SKYSAT-C2

Last updated on Mon Sep 21 2026 00:02:46 GMT+0000 (Coordinated Universal Time)

1 41773U 16058D 26263.00416531 .00008526 00000+0 18903-3 0 9995 2 41773 97.0153 281.6442 0004916 76.7788 283.4009 15.43966626559675
UTC large
Height (km)
Speed (km/s)
/
Latitude / Longitude
Inclination (degrees)
Orbital Period (minutes)
Azimuth
Elevation
Range (km)
Doppler Factor

Next 0 passes for location: London (51.5072 / 0.1276)

No passes found over London.
SKYSAT-C2